Left ArrowRight Arrow

35.59393, -105.2239

Hourly Observations for May 11, 2024

Temp ( °F °C ) Dew Point ( °F °C ) Humidity (%) Winds ( mph kmh ) Pressure ( in mb ) Visibility ( mi km ) Precip ( " mm )
12:34 am 00:34 Cloudy 45 7.2 42 5.6 90 90 ENE 8 13 30.07 1018 10 16 0.00 0.00
12:53 am 00:53 Cloudy 45 7.2 42 5.6 90 90 E 9 15 30.08 1019 10 16 0.00 0.00
1:12 am 01:12 Cloudy 45 7.2 41 5 86 86 E 10 17 30.07 1018 10 16 0.00 0.00
1:31 am 01:31 Cloudy 44 6.7 41 5 89 89 SE 9 15 30.09 1019 10 16 0.00 0.00
1:53 am 01:53 Cloudy 44 6.7 41 5 89 89 SSE 7 11 30.08 1019 10 16 0.00 0.00
2:50 am 02:50 Cloudy with Light Rain 45 7 43 6 93 93 ESE 12 19 30.05 1018 10 16 0.01 0.13
2:53 am 02:53 Cloudy with Light Rain 44 6.7 42 5.6 93 93 E 9 15 30.04 1017 10 16 0.01 0.13
3:10 am 03:10 Cloudy with Light Rain 44 6.7 42 5.6 93 93 E 7 11 30.06 1018 10 16 0.01 0.13
3:25 am 03:25 Cloudy 44 6.7 42 5.6 93 93 NNE 6 9 30.06 1018 10 16 0.01 0.13
3:35 am 03:35 Cloudy 44 6.7 42 5.6 93 93 NE 7 11 30.05 1017 10 16 0.01 0.13
3:49 am 03:49 Cloudy 45 7 43 6 93 93 Calm 30.05 1018 10 16 0.01 0.13
3:53 am 03:53 Cloudy 44 6.7 42 5.6 93 93 NE 3 6 30.03 1017 10 16 0.01 0.13
4:53 am 04:53 Cloudy with Light Rain 44 6.7 42 5.6 93 93 NE 6 9 30.02 1017 10 16 0.01 0.13
5:05 am 05:05 Cloudy 44 6.7 42 5.6 93 93 NE 6 9 30.05 1017 10 16 0.01 0.13
5:42 am 05:42 Cloudy 44 6.7 42 5.6 93 93 NE 5 7 30.04 1017 10 16 0.01 0.13
5:53 am 05:53 Cloudy 44 6.7 42 5.6 93 93 NE 6 9 30.00 1016 10 16 0.01 0.25
6:46 am 06:46 Cloudy 44 6.7 42 5.6 93 93 NE 3 6 30.04 1017 10 16 0.01 0.13
6:53 am 06:53 Cloudy 44 6.7 43 6.1 96 96 NE 3 6 30.00 1016 10 16 0.01 0.13
7:11 am 07:11 Cloudy with Light Rain 44 6.7 43 6.1 96 96 NNW 3 6 30.04 1017 10 16 0.01 0.13
7:18 am 07:18 Cloudy with Light Rain 44 6.7 43 6.1 96 96 NW 5 7 30.04 1017 10 16 0.01 0.13
7:28 am 07:28 Cloudy with Nearby Thunderstorms 44 6.7 43 6.1 96 96 Calm 30.03 1017 10 16 0.01 0.13
7:45 am 07:45 Cloudy with Light Rain 45 7.2 43 6.1 93 93 Calm 30.01 1016 10 16 0.01 0.13
7:53 am 07:53 Cloudy with Light Rain 45 7.2 42 5.6 90 90 Calm 30.00 1016 10 16 0.01 0.25

Powered by Vaisala Xweather